This is the latest recevied weather packets stored in our database for station/object DL9OAC-5. If no packets are shown the sender has not sent any weather packets the latest 10 day(s).
| Time | Temp. | Humidity | Pressure | Rain* | Wind** | Luminosity | Snow |
|---|---|---|---|---|---|---|---|
| 1777382542 | 33.33° C | 23% | 1024.6 hPa | - | - | - | - |
| 1777382242 | 32.22° C | 23% | 1024.8 hPa | - | - | - | - |
| 1777381942 | 31.67° C | 23% | 1024.8 hPa | - | - | - | - |
| 1777381642 | 30.56° C | 23% | 1024.7 hPa | - | - | - | - |
| 1777381342 | 29.44° C | 24% | 1024.9 hPa | - | - | - | - |
| 1777381042 | 28.89° C | 24% | 1024.7 hPa | - | - | - | - |
| 1777380742 | 27.78° C | 24% | 1024.8 hPa | - | - | - | - |
| 1777380442 | 27.78° C | 24% | 1024.9 hPa | - | - | - | - |
| 1777380142 | 26.67° C | 24% | 1025 hPa | - | - | - | - |
| 1777379842 | 26.11° C | 24% | 1024.6 hPa | - | - | - | - |
| 1777379542 | 25.56° C | 25% | 1024.5 hPa | - | - | - | - |
| 1777378927 | 26.67° C | 26% | 1024.6 hPa | - | - | - | - |
| 1777378327 | 27.22° C | 30% | 1024.3 hPa | - | - | - | - |
| 1777378027 | 27.22° C | 30% | 1024.3 hPa | - | - | - | - |
| 1777377727 | 27.22° C | 30% | 1024.3 hPa | - | - | - | - |
| 1777377427 | 27.22° C | 30% | 1024.4 hPa | - | - | - | - |
| 1777377127 | 27.22° C | 30% | 1024.5 hPa | - | - | - | - |
| 1777376527 | 27.22° C | 30% | 1024.4 hPa | - | - | - | - |
| 1777375327 | 27.22° C | 30% | 1024.4 hPa | - | - | - | - |
| 1777375027 | 27.22° C | 30% | 1024.4 hPa | - | - | - | - |
| 1777374727 | 27.22° C | 30% | 1024.4 hPa | - | - | - | - |
| 1777374426 | 27.22° C | 30% | 1024.5 hPa | - | - | - | - |
| 1777373826 | 27.22° C | 30% | 1024.5 hPa | - | - | - | - |
| 1777373526 | 27.22° C | 30% | 1024.6 hPa | - | - | - | - |
| 1777373226 | 27.22° C | 30% | 1024.6 hPa | - | - | - | - |
* Rain since midnight (hover to see other rain measurements)
** Current wind speed in m/s (hover to see current wind gust speed)